Location: McFarlands Corners
(41.4117°N, 81.3382°W)
Time: 19:11:15
(UTC+00:00)

Transit 4A - Pass Details

Date: 22 February 2026
Orbit: 864 x 977 km, 66.8° (Epoch: 10 March)

Event Time Altitude Azimuth Distance (km) Brightness Sun altitude
Rises 07:51:35 0° 202° (SSW) 3,440 - -47.3°
Reaches altitude 10° 07:54:02 10° 201° (SSW) 2,515 - -46.9°
Maximum altitude 07:59:49 74° 117° (ESE) 924 - -46.0°
Exits shadow 08:04:56 15° 34° (NE) 2,272 10.4 -45.2°
Drops below altitude 10° 08:05:48 10° 33° (NNE) 2,597 10.7 -45.1°
Sets 08:08:22 0° 32° (NNE) 3,559 11.6 -44.7°
